Погода в Майами Гарденс

США     25°58′45″N   80°12′24″W
темп.,
°C
ветер,
м/с
пор.,
м/с
влажн.,
%
обл.,
%
осадки,
мм/ч
давл.,
гПа
погр.,
м
3 марта, ср
ср301:00+24ююз466841 0.0 1016630
04:00+23ююз587359 0.0 1014747
07:00+23юз487530 0.0 1015745
10:00+26зюз58610 0.0 10161081
13:00+30зюз79402 0.0 10141805
16:00+29з9115237 0.3 10121502
19:00+27з8106043 0.4 10141158
22:00+23зсз68557 0.0 1016643
4 марта, чт
чт401:00+21сз56554 0.0 1016577
04:00+19сз46700 0.0 1015418
07:00+18ссз45750 0.0 1015370
10:00+21ссз33530 0.0 1016757
13:00+25ссз33350 0.0 10151567
16:00+25ссз65475 0.0 10131487
19:00+22с786019 0.1 1014807
22:00+21с69670 0.0 1015559
5 марта, пт
пт501:00+21с69670 0.0 1014770
04:00+21с6106752 0.0 1014874
07:00+21с6106934 0.1 1014909
10:00+23св686562 0.4 10161068
13:00+24всв886166 1.1 10151081
16:00+24всв786152 0.4 10131071
19:00+24в676357 0.9 10141134
22:00+23в576573 0.1 10151006
6 марта, сб
сб601:00+23вюв456375 0.2 10141077
04:00+23ююв456281 0.0 10121044
07:00+23ююз456689 0.4 1013828
10:00+25ююз685145 0.1 10131353
13:00+27юз784454 0.2 10121743
16:00+26зсз9115259 0.4 10111522
19:00+22с896264 0.6 1013972
22:00+21ссв9116880 0.1 10161066
7 марта, вс
вс701:00+20св796772 0.3 1016987
04:00+20ссв68678 0.0 1016879
07:00+20ссв57668 0.1 1019980
10:00+22ссв67579 0.1 10221164
13:00+24св784915 0.3 10211561
16:00+23всв89554 0.1 10211413
19:00+21всв9116112 0.4 10231261
22:00+21всв811618 0.0 10251349